Theta_e
313 312 312 311 312 314 315 316 316 316 316 317 316 314 313 312 312 316 317 316 317 315 315 316 314 315 316 316 317 317 319 318 322 334 335 334 335 334 334 335 336 337 338 339 337 337 339 341 342 342 343 342 341 341 341 339 338 340 341 341 341 340 340 340 339 338 337 337 337 336 337 338 337 336 336 336 335 334 335 334 334 335 335 335 334 334
313 312 312 312 313 314 315 317 317 317 317 317 315 313 313 312 313 316 318 316 317 315 314 316 314 314 316 315 317 317 318 317 319 332 335 333 332 332 333 337 338 339 338 337 337 337 339 341 341 341 342 342 341 341 341 341 339 338 339 341 341 340 339 339 338 338 337 337 337 336 337 336 336 335 335 335 335 334 335 334 334 334 334 334 334 334
313 312 312 313 314 314 315 316 316 317 317 317 317 315 312 313 314 315 318 317 316 315 314 316 314 314 316 315 317 316 317 319 318 328 334 333 331 331 335 341 346 346 340 335 337 339 339 340 340 340 341 341 341 341 341 342 340 338 338 339 339 339 337 336 336 337 337 337 336 336 337 335 335 335 335 336 335 334 334 334 334 334 333 333 334 334
313 313 313 314 314 315 315 315 317 318 317 318 317 315 312 314 313 311 314 317 317 316 315 316 314 315 317 316 317 317 317 318 316 320 330 332 332 333 335 339 345 347 341 335 337 340 340 340 340 340 341 341 341 342 341 341 340 338 338 337 336 336 336 336 336 336 336 337 336 336 336 335 335 335 335 336 334 334 334 333 334 333 332 332 333 333
314 315 314 314 313 315 315 315 318 319 318 319 319 316 313 314 313 311 315 317 316 317 317 316 313 313 315 316 316 317 317 317 317 317 320 325 327 329 335 337 339 340 338 337 339 342 342 341 340 340 341 342 341 342 343 341 339 336 336 335 334 335 337 337 337 336 336 336 335 336 336 335 335 336 335 334 334 334 333 333 334 334 333 333 333 333
316 317 316 315 314 314 315 314 317 319 317 317 318 317 314 315 315 315 316 316 312 312 316 316 311 311 314 315 316 316 317 317 318 318 316 319 319 322 334 335 336 337 338 340 341 341 342 342 341 341 341 342 342 342 341 339 337 335 335 335 335 336 337 337 336 336 335 335 336 336 336 335 334 335 335 334 333 333 332 332 333 333 333 333 333 333
316 317 316 315 315 314 315 316 317 319 316 313 316 317 316 316 315 315 315 313 309 309 315 317 312 310 311 313 316 316 316 317 317 317 317 319 318 318 331 334 336 338 339 343 343 340 342 343 342 341 340 340 339 336 333 333 334 334 334 335 335 336 335 336 336 335 335 335 335 335 335 334 333 334 335 335 333 333 332 331 332 333 333 333 333 333
317 316 315 316 315 316 316 316 317 318 315 312 315 317 316 316 315 315 314 312 311 312 314 315 311 309 309 312 317 317 317 317 317 318 317 317 319 318 325 333 335 336 339 343 344 342 342 344 343 340 335 333 333 330 328 330 333 333 334 334 334 335 335 335 336 335 335 335 334 335 334 333 333 333 335 335 333 332 331 331 332 333 332 332 332 333
318 316 316 316 315 316 316 316 316 316 314 314 315 316 315 316 316 315 314 311 313 312 310 311 311 310 308 312 318 318 316 316 317 318 318 318 319 318 319 329 332 334 339 342 343 343 343 342 337 333 331 331 331 331 331 334 335 333 334 335 334 335 335 335 335 335 335 334 334 334 334 334 334 334 334 334 334 332 331 331 332 332 332 331 332 332
317 316 316 316 316 316 316 316 315 314 314 315 316 315 315 316 315 316 315 311 311 312 309 309 310 309 308 311 315 316 316 318 319 317 322 325 324 324 322 326 332 335 338 340 340 342 341 336 332 332 332 332 332 333 334 335 334 334 334 334 334 334 333 334 334 335 334 334 334 333 334 334 334 334 334 334 333 332 331 331 331 331 331 331 332 332
316 317 317 316 317 317 316 315 314 314 315 315 315 314 314 315 315 316 314 311 310 311 310 309 310 310 309 310 313 318 321 325 326 324 328 330 328 330 328 326 330 333 335 337 336 339 336 332 332 331 331 332 332 333 334 332 332 334 335 334 334 333 333 335 334 334 334 334 334 333 333 334 334 334 334 333 332 331 331 331 331 331 331 332 332 332
315 316 317 316 316 316 316 315 315 316 315 316 315 314 313 313 313 312 311 311 311 311 310 309 310 310 308 310 317 323 324 327 329 327 330 331 330 331 329 327 329 331 335 336 335 338 332 330 331 330 330 331 332 333 333 332 332 334 334 334 334 333 331 332 333 334 334 334 334 332 332 334 334 333 333 332 331 330 331 332 332 331 331 331 332 332
314 315 316 316 316 316 316 314 314 315 315 316 314 312 311 311 311 311 310 310 311 310 310 310 311 310 309 316 325 327 326 328 330 329 330 331 333 333 330 329 331 332 335 336 336 337 331 331 331 330 330 330 331 332 332 333 334 332 333 334 334 334 331 326 332 334 334 334 334 332 333 335 334 332 332 331 329 329 331 331 331 330 329 330 331 331
313 315 315 316 316 316 316 313 311 312 313 314 312 311 311 310 311 312 311 312 312 311 311 311 312 309 311 323 331 330 330 330 331 332 333 334 335 335 333 333 335 335 336 336 336 333 330 331 331 330 329 329 331 332 331 334 334 332 332 333 333 335 335 332 334 334 334 334 334 333 334 335 334 332 332 331 329 330 331 331 330 329 329 329 330 330
312 313 314 314 316 315 315 314 313 314 314 315 314 313 311 310 311 312 312 313 313 313 313 315 314 310 314 325 330 328 328 329 331 333 334 335 335 334 333 332 332 332 331 330 330 329 329 330 330 329 330 330 331 332 332 333 333 333 332 331 332 334 335 334 334 333 333 334 333 334 335 334 333 331 330 330 329 330 330 330 330 329 329 329 328 329
312 312 315 315 316 315 315 314 315 315 313 315 316 313 311 311 311 311 312 313 314 315 315 314 314 317 323 327 327 327 327 327 331 333 334 335 335 334 333 331 330 330 329 328 328 329 328 330 331 330 331 330 330 331 333 333 333 334 332 331 332 333 334 334 333 333 333 333 333 334 334 333 331 330 330 330 329 330 330 330 330 329 329 329 328 329
312 313 316 316 316 316 315 315 315 314 313 314 314 311 312 314 312 311 312 313 313 315 316 313 314 322 328 329 327 328 328 328 330 332 333 334 334 333 332 330 330 329 327 327 329 330 328 329 331 331 332 332 331 331 334 334 334 334 333 332 332 332 333 333 334 333 333 333 333 334 334 332 330 329 330 330 329 329 330 330 329 329 329 329 328 329
315 314 316 316 316 316 315 316 315 314 314 313 312 312 314 314 313 312 312 313 315 315 315 312 313 321 326 327 329 330 329 330 331 330 332 333 333 332 331 329 329 328 326 326 328 329 329 328 330 330 331 333 332 331 333 334 334 334 334 333 332 332 333 333 334 333 333 334 333 334 334 331 329 329 329 330 329 329 330 330 329 329 328 328 328 329
315 313 315 316 316 316 317 316 314 314 314 314 314 316 315 313 311 311 311 313 316 316 316 312 312 320 326 326 329 331 331 332 331 330 332 333 334 333 332 329 328 328 328 328 328 328 329 329 329 328 328 330 331 331 332 333 333 334 335 334 333 332 333 333 334 333 334 334 334 334 333 330 328 329 329 330 329 329 330 330 329 328 328 328 328 329
316 314 314 316 316 316 316 315 312 313 315 313 315 316 315 314 312 312 312 313 314 315 317 314 314 325 330 329 331 331 330 331 330 330 332 333 334 333 333 331 329 328 328 329 329 329 329 329 328 327 328 329 329 329 331 332 332 333 334 334 334 333 333 333 333 333 334 334 334 334 333 329 328 329 330 330 330 329 330 329 329 329 328 329 329 329
316 317 315 315 316 315 314 314 313 313 314 313 312 312 313 314 314 315 314 313 312 314 317 315 319 329 331 328 330 330 329 329 329 331 332 332 333 332 332 332 332 331 330 330 330 329 329 329 328 327 328 327 326 328 330 331 332 332 332 333 334 333 333 333 333 333 334 334 334 334 332 329 330 331 331 330 329 330 330 329 329 329 329 329 329 329
315 316 316 315 314 313 313 315 315 314 314 314 312 311 312 313 313 314 316 316 315 316 317 316 322 330 330 327 330 330 329 329 329 331 331 330 330 329 330 331 331 331 331 331 332 330 328 327 327 328 328 327 327 329 331 331 331 331 331 332 332 332 332 333 333 333 333 333 333 334 331 331 333 332 330 330 330 330 329 329 329 329 329 328 328 327
316 316 315 315 314 314 315 315 315 315 314 315 314 313 314 313 311 312 316 320 318 316 316 316 321 328 329 329 330 329 328 329 329 330 330 328 327 327 327 328 328 328 329 330 331 330 328 327 327 328 329 329 329 329 330 331 331 330 331 330 331 331 332 332 332 332 332 331 333 334 333 333 334 332 329 330 330 329 329 329 329 328 328 328 327 326
317 316 315 315 315 315 317 316 316 315 314 314 314 314 315 314 313 313 316 319 317 315 316 317 322 328 329 328 328 327 328 328 328 328 328 326 326 325 324 325 325 326 326 326 326 326 326 327 327 327 328 328 328 327 328 329 329 329 329 330 330 330 330 331 331 332 331 331 332 333 332 333 333 331 329 329 329 329 328 329 328 328 328 328 327 326
317 316 315 317 317 315 316 317 317 316 315 314 315 317 316 314 319 320 319 319 317 316 317 319 325 329 329 328 328 328 327 327 325 325 324 324 323 323 323 324 324 323 323 322 322 321 321 321 322 323 323 324 325 325 324 326 326 327 327 328 329 328 329 330 330 331 331 331 331 331 331 333 333 330 329 329 329 328 328 328 328 328 328 328 327 327
320 319 317 318 319 319 319 319 320 320 319 318 317 320 320 319 323 323 321 320 319 318 320 322 326 329 330 329 328 327 326 324 323 322 321 321 321 320 321 322 322 321 321 320 320 319 318 317 318 318 318 320 322 323 323 323 325 326 326 327 328 327 328 329 329 330 330 329 329 331 332 332 332 330 329 329 328 328 328 329 328 328 328 327 327 326
323 323 320 320 322 323 322 321 321 321 321 322 323 324 325 325 326 324 322 323 325 325 326 326 326 330 330 328 326 325 323 322 321 320 320 320 319 319 320 320 320 320 319 319 318 317 316 315 315 316 316 317 319 321 321 321 322 324 325 327 327 327 328 328 328 329 328 327 329 331 332 332 331 330 329 328 328 329 328 328 328 328 327 326 326 326
323 323 322 322 323 324 322 320 320 321 322 325 327 327 326 327 327 327 326 327 327 326 327 328 329 331 329 326 323 322 320 319 319 318 317 317 317 317 318 318 318 317 317 317 316 316 315 314 314 314 314 314 316 317 319 319 320 321 323 325 326 326 328 328 328 328 328 328 329 330 331 331 330 330 329 328 329 329 328 327 327 326 324 324 325 324
324 323 323 324 324 323 321 321 322 322 323 324 325 326 326 325 326 328 328 328 327 326 327 329 330 329 326 322 320 319 318 317 317 315 315 314 313 314 315 315 315 314 314 314 314 313 313 312 312 313 312 312 313 314 316 317 317 318 320 323 324 326 327 327 327 328 328 329 330 330 330 330 329 328 328 328 328 328 327 327 326 325 324 323 323 322
323 324 324 324 324 324 323 322 323 323 323 322 322 323 324 324 325 326 327 327 327 329 329 328 326 324 320 318 317 317 315 315 314 313 312 311 311 311 311 312 312 311 312 312 311 311 311 310 311 312 311 311 312 313 314 314 314 315 317 319 322 324 327 326 327 328 328 328 329 329 329 329 328 327 328 328 328 328 327 326 326 325 323 322 321 320
322 322 323 323 322 323 323 322 323 323 322 320 319 319 321 323 324 324 325 326 327 329 329 327 325 321 317 316 315 314 312 312 311 310 310 309 309 309 309 309 309 309 309 309 309 309 309 309 310 310 310 310 311 311 312 312 312 312 314 316 318 321 325 326 327 327 328 328 328 328 328 327 326 326 327 327 327 328 327 326 326 325 323 321 320 320
321 322 322 322 322 322 322 322 322 323 322 319 317 317 319 321 323 323 322 322 323 326 327 327 326 321 316 314 313 311 309 309 308 308 308 308 307 307 307 306 306 307 307 307 307 307 307 307 308 308 309 309 310 310 310 311 311 311 312 313 314 317 321 324 326 326 326 327 326 327 328 328 326 326 326 326 326 326 326 326 325 324 323 321 321 322
320 321 321 322 322 321 322 323 323 323 324 321 316 315 317 319 320 321 320 319 320 322 323 324 321 317 314 312 311 309 307 307 306 306 306 306 306 305 305 305 305 304 305 305 305 305 306 306 307 307 307 308 309 310 309 310 310 310 310 311 313 314 315 318 322 323 324 325 325 325 326 326 326 325 324 325 325 325 325 325 325 324 323 323 323 324
321 320 320 321 319 319 323 324 323 324 325 319 314 313 315 317 318 318 317 316 317 318 318 317 314 311 309 308 307 306 306 305 305 305 304 305 305 304 304 304 303 303 303 303 303 304 305 305 306 305 305 306 308 309 309 309 308 308 309 311 312 312 311 312 315 317 319 321 323 324 324 323 323 322 322 323 324 325 324 324 324 324 323 323 323 323
321 318 319 320 318 319 322 323 323 324 320 315 313 312 313 315 316 316 314 313 314 315 315 313 311 309 307 306 305 305 304 304 304 304 304 304 304 304 303 303 303 302 302 302 302 303 304 304 304 304 304 304 305 306 307 308 307 307 307 308 310 310 309 309 310 311 314 316 318 319 320 320 319 318 318 320 322 322 321 321 320 320 321 321 321 320
320 318 318 320 319 319 321 323 323 320 316 314 313 312 312 313 314 315 315 313 311 313 314 312 310 308 307 306 306 305 304 303 303 303 303 303 303 303 303 303 303 302 302 302 302 302 303 303 303 303 303 303 303 304 305 306 306 306 306 306 306 307 308 308 308 308 309 311 313 314 315 316 316 315 316 317 318 317 317 317 317 317 317 318 318 318
320 320 318 319 320 319 320 320 319 317 315 314 313 312 312 312 312 313 315 313 310 311 312 311 309 308 307 307 307 305 305 305 304 302 302 302 303 302 302 302 302 302 302 302 302 302 302 302 302 303 302 302 302 302 303 304 304 304 305 305 305 305 305 306 306 306 306 307 309 311 312 313 313 313 314 314 315 315 316 316 316 316 316 316 316 316
319 320 318 318 319 318 317 317 318 319 317 314 312 312 311 312 311 310 313 313 310 309 310 310 309 308 308 308 308 307 308 308 305 302 302 302 302 302 301 301 302 301 301 301 301 301 301 301 301 302 302 302 301 301 302 302 303 303 303 303 303 303 303 304 304 305 305 305 307 308 310 311 311 312 312 312 313 313 313 314 315 315 315 315 314 314
318 318 317 317 318 318 318 319 319 319 316 312 311 311 311 312 311 310 314 315 310 309 309 309 309 309 309 309 309 308 310 310 306 302 301 301 301 301 301 301 301 301 301 301 301 301 301 300 300 300 301 301 301 300 301 301 301 302 302 302 302 302 302 303 303 303 304 304 305 306 307 308 309 310 310 311 311 311 312 312 313 313 313 312 312 312
317 317 316 317 318 318 318 317 315 314 312 310 310 311 310 311 311 314 318 316 309 309 310 309 308 309 309 309 308 307 308 308 305 302 302 301 301 301 301 301 301 300 300 300 300 300 300 300 299 299 300 300 300 300 300 300 300 301 301 301 301 301 302 302 302 302 303 303 304 304 305 305 306 307 307 308 308 309 309 310 310 310 310 310 309 310
316 316 316 317 317 316 316 315 313 312 310 309 310 311 309 310 313 316 317 312 308 310 310 308 309 309 308 308 306 305 305 304 302 302 301 301 301 301 300 300 300 300 300 300 300 300 300 300 299 299 299 299 299 300 300 300 300 300 300 300 300 300 301 301 301 302 302 302 303 303 304 304 304 305 305 305 306 307 307 307 308 308 308 308 309 309
315 315 316 316 317 316 315 314 314 312 309 308 310 310 308 312 315 313 310 309 309 310 309 308 308 308 306 305 304 304 303 302 301 301 301 300 300 300 300 299 299 299 300 300 300 300 300 300 299 299 298 298 298 299 300 300 300 300 300 300 300 300 300 300 301 302 302 302 302 303 303 303 304 304 304 304 305 305 305 305 305 306 306 306 306 307
314 315 315 314 315 316 315 314 314 313 310 308 309 309 309 310 311 307 307 309 310 308 308 307 306 305 304 303 303 302 302 301 301 300 300 300 300 300 299 299 299 299 299 299 299 299 299 299 299 299 298 298 298 298 298 299 300 300 299 299 299 299 300 300 300 301 302 303 303 303 303 303 304 304 304 304 304 304 304 304 304 304 305 304 304 304
312 315 314 312 312 314 314 312 311 310 308 307 308 308 307 307 306 305 306 308 308 307 306 305 304 304 303 302 302 302 301 300 300 300 300 300 300 300 299 299 299 299 299 299 299 299 299 299 299 298 298 298 297 297 297 298 298 299 299 299 299 299 299 299 300 301 301 302 303 303 303 303 304 304 304 304 305 305 305 305 304 305 306 306 306 306
311 311 311 310 309 310 310 309 308 308 307 306 307 306 305 305 304 304 305 305 306 306 306 304 304 303 302 302 301 301 301 300 300 300 300 300 300 300 299 299 299 299 299 299 298 298 299 299 299 299 298 298 298 297 297 297 297 297 298 299 299 299 299 299 300 300 300 301 302 303 303 303 303 303 303 304 304 304 304 304 305 305 305 306 306 306
310 309 309 309 308 308 309 308 308 307 307 306 306 305 305 304 303 303 303 303 304 304 304 304 304 303 302 302 301 300 300 300 300 299 300 300 300 299 299 299 299 299 299 299 299 299 299 299 298 299 299 298 298 298 298 298 298 297 297 298 298 299 300 300 300 300 300 300 301 302 302 302 302 302 303 303 303 304 304 304 304 304 305 305 305 305
309 309 309 309 309 309 309 309 307 307 307 306 305 305 304 303 303 302 302 302 303 303 303 304 303 302 302 301 301 300 300 300 300 300 300 300 300 299 299 299 299 299 299 299 299 299 299 299 299 299 299 299 299 299 299 300 299 299 298 298 299 299 300 300 300 301 301 301 301 301 301 301 300 300 300 302 302 303 303 302 301 301 302 303 304 304
308 308 309 308 308 308 308 307 306 306 306 306 305 304 304 303 302 302 302 302 303 303 303 303 303 303 302 302 301 301 301 301 300 300 300 300 300 300 300 300 300 300 300 299 299 299 299 299 299 299 299 299 299 299 300 300 300 300 300 300 300 300 301 300 300 301 301 301 301 301 301 301 300 298 298 298 300 301 301 300 299 297 298 299 301 302
307 307 307 307 307 307 306 305 305 306 306 305 305 305 304 303 303 302 302 302 302 302 302 303 303 303 303 302 302 302 302 302 302 301 300 301 300 300 300 300 300 300 300 299 299 299 299 299 299 299 299 299 300 300 300 300 300 300 301 301 301 301 301 301 300 300 300 301 301 301 301 302 302 300 299 298 297 298 298 298 298 297 296 297 298 299
307 307 307 307 307 307 307 306 305 305 305 305 305 305 304 304 303 303 303 302 302 302 302 302 302 302 302 302 302 302 301 301 302 302 302 302 301 301 300 300 300 300 300 299 299 299 299 299 300 299 299 299 299 299 299 299 300 300 300 300 300 301 301 301 301 300 300 300 300 301 301 302 302 302 301 300 298 297 297 297 298 298 297 297 297 298
307 307 307 307 307 307 306 305 305 305 304 304 304 304 304 304 303 303 303 303 302 302 302 302 301 301 301 301 301 301 301 301 301 302 302 302 302 301 301 300 300 300 300 300 300 299 299 299 299 299 299 299 299 299 299 299 299 299 299 299 300 300 300 300 300 300 300 300 300 300 301 301 302 302 302 302 301 299 298 297 297 298 298 297 297 297
Wind_Speed
8 6 8 8 10 12 13 14 14 16 16 14 10 6 8 9 9 10 7 12 7 3 5 8 9 11 11 13 12 6 7 11 10 12 11 9 8 8 7 6 4 4 1 4 10 10 12 16 17 17 20 23 21 19 21 24 25 24 24 24 24 24 22 23 23 23 22 19 18 17 15 13 12 11 10 10 11 11 11 11 10 11 12 11 9 11
8 7 9 11 14 14 14 14 14 17 16 12 11 7 8 9 7 8 7 10 11 5 4 8 10 11 12 13 13 12 11 10 11 14 13 11 9 8 8 6 3 3 3 6 10 10 14 14 13 13 18 23 22 20 21 22 23 24 25 25 23 23 22 22 22 22 20 17 16 16 14 14 13 10 8 8 10 11 13 13 12 12 11 10 10 12
8 8 12 14 14 14 14 14 14 16 15 8 7 8 7 7 6 8 9 4 7 5 3 8 10 10 12 13 12 14 14 11 8 14 16 14 13 11 10 9 5 5 4 8 12 11 15 14 15 14 16 21 22 22 22 21 22 24 24 23 21 21 20 19 20 20 19 17 17 17 15 15 14 11 9 7 10 12 13 13 13 12 11 10 10 12
7 9 15 16 13 13 14 14 11 11 10 5 6 8 7 8 8 7 6 5 3 3 2 5 10 9 11 11 11 13 12 13 15 10 16 17 16 15 14 12 9 10 11 13 13 11 13 13 15 17 17 20 21 21 21 21 20 21 20 18 18 18 18 17 17 18 19 19 17 16 15 16 15 13 12 10 11 11 11 12 13 12 9 8 8 12
10 13 17 16 14 14 15 13 8 6 5 7 10 10 8 10 11 9 7 5 4 4 2 5 9 8 10 12 10 10 10 12 17 14 11 13 15 15 15 14 13 13 13 16 15 12 11 12 14 18 18 18 18 19 21 21 18 16 16 17 18 18 18 16 16 17 19 18 17 17 16 16 15 13 12 12 12 12 12 12 12 10 7 6 8 11
12 15 13 14 15 15 13 10 9 8 6 8 11 13 13 13 13 13 12 8 6 5 5 8 8 6 9 13 12 10 10 12 14 15 13 11 14 12 13 15 15 15 16 15 13 12 12 13 14 18 20 18 17 16 13 13 14 17 17 17 17 17 16 15 16 18 18 17 18 21 20 18 17 14 12 12 13 13 12 11 11 9 7 7 8 9
10 14 9 8 9 10 10 8 10 11 8 7 10 12 15 15 14 14 13 11 7 5 5 8 8 6 7 11 12 13 14 15 14 14 13 10 12 11 12 18 17 16 15 12 13 14 13 14 15 13 9 6 6 8 14 19 22 21 16 17 17 15 15 16 17 19 19 18 19 20 20 20 20 17 14 12 13 14 12 11 11 9 8 8 8 8
9 15 13 11 9 6 8 8 10 12 9 7 9 11 14 15 16 16 12 9 8 7 8 11 10 7 6 7 10 12 12 14 14 13 14 12 12 12 9 17 19 17 15 14 13 13 12 11 6 9 18 24 23 17 17 21 23 19 14 16 16 15 14 14 17 20 18 18 19 19 18 18 18 17 15 13 13 14 12 12 12 10 9 10 9 8
10 15 14 12 9 7 8 10 11 12 10 8 11 14 14 12 12 13 10 8 8 8 8 11 11 8 6 6 10 13 12 11 11 10 11 11 10 12 11 13 20 17 15 15 13 12 11 8 16 24 25 23 22 20 16 16 19 19 18 17 15 16 15 12 16 20 19 18 20 22 20 18 17 15 15 15 14 14 13 12 12 12 11 10 10 8
9 10 11 8 8 8 9 11 12 13 11 9 12 14 11 5 6 8 8 8 8 9 9 10 11 8 6 6 7 9 9 7 8 8 5 4 3 5 9 5 17 17 12 14 14 10 9 17 23 24 23 18 15 15 13 13 20 26 26 21 17 19 19 17 17 18 19 19 20 23 24 22 19 16 16 16 15 14 14 13 11 11 12 11 10 8
8 8 9 9 9 10 10 11 12 12 9 8 10 10 7 3 5 7 7 7 7 8 10 12 13 10 7 6 6 4 1 6 3 3 7 10 11 10 12 8 9 15 8 8 9 8 14 21 25 26 26 24 22 21 20 19 24 31 31 27 24 22 21 18 18 19 20 21 21 23 24 24 23 19 19 19 17 16 14 12 10 9 11 12 10 9
13 9 8 7 6 7 10 10 10 9 7 7 8 5 4 5 7 7 7 7 7 7 9 12 14 13 9 5 3 2 5 9 7 6 8 9 10 10 11 12 6 12 7 7 8 11 16 16 20 22 21 20 19 21 26 27 31 36 37 36 34 32 28 21 22 26 26 24 24 25 24 23 24 22 22 21 19 17 14 13 12 10 10 11 10 9
12 10 11 8 6 8 11 8 8 9 8 8 7 5 5 6 6 7 6 6 7 8 9 12 12 10 6 2 6 7 8 10 8 7 9 9 10 10 10 12 5 7 5 5 6 11 14 10 11 12 13 14 14 19 26 31 35 39 41 41 39 39 37 32 33 35 33 30 27 27 26 23 24 24 23 21 20 18 15 15 14 12 12 12 11 10
8 11 14 12 8 11 13 9 8 9 9 9 8 7 7 6 5 6 6 6 7 7 9 12 10 7 4 3 10 11 10 11 10 9 11 10 10 10 12 14 12 9 9 9 10 13 12 8 6 6 9 10 12 18 26 31 33 31 32 35 35 34 32 34 40 39 35 33 29 28 27 24 25 26 24 23 21 18 17 17 15 13 13 12 11 11
9 9 11 10 8 11 14 13 10 8 8 9 8 8 8 7 6 5 5 6 6 4 6 9 7 5 4 1 7 9 10 10 10 10 10 10 11 10 12 14 12 12 12 12 11 10 9 7 7 5 6 8 6 14 24 30 28 21 21 26 27 26 21 22 32 36 33 33 30 27 27 27 28 28 26 25 23 20 18 17 15 14 13 12 11 11
10 9 8 11 10 12 14 14 13 11 8 8 8 9 8 7 6 4 4 5 3 3 4 5 3 2 3 4 6 7 8 9 8 10 10 10 11 10 10 10 8 9 10 9 8 6 3 4 7 6 7 8 10 18 20 24 22 15 16 19 20 22 21 19 24 29 30 30 29 27 27 29 30 29 27 25 22 20 19 18 16 14 13 12 12 11
8 8 8 12 12 13 13 12 13 12 7 5 8 9 8 9 8 5 5 5 3 4 4 5 3 4 6 5 7 7 7 8 8 9 10 11 12 11 10 9 7 7 8 8 6 3 1 3 3 6 10 15 19 21 17 17 16 12 14 17 16 18 21 21 22 25 27 28 28 27 27 30 31 28 27 25 22 20 18 18 17 14 13 13 12 11
6 6 8 11 12 13 13 13 14 13 10 5 5 8 8 9 9 5 4 5 5 6 5 6 7 4 4 2 6 7 6 8 9 9 10 10 11 11 10 9 8 8 7 7 6 4 1 4 6 4 5 8 16 17 12 8 8 8 10 15 17 17 18 20 22 23 25 26 27 26 27 30 30 27 25 23 21 20 18 17 16 14 13 13 13 12
5 5 7 12 12 11 13 13 12 12 14 11 6 7 6 6 7 6 5 5 6 6 5 8 9 1 3 1 5 5 5 8 9 9 9 11 11 10 9 9 9 9 7 7 7 6 3 4 7 8 12 9 11 13 9 6 5 3 4 10 14 15 15 18 20 21 23 25 26 24 26 31 30 25 23 22 21 22 19 17 16 15 14 14 13 13
4 4 6 10 10 10 9 9 8 9 12 12 10 8 6 4 4 4 3 4 6 6 5 7 6 2 4 4 4 6 4 6 6 4 6 9 10 9 9 8 7 7 7 7 6 6 3 2 1 3 6 5 4 9 12 14 13 10 10 10 12 15 16 18 19 21 23 25 24 22 26 31 29 24 22 22 22 22 20 17 17 16 15 14 14 13
6 4 5 6 8 9 7 7 9 9 9 10 9 8 7 5 4 3 2 2 4 4 4 5 3 2 1 3 4 7 5 4 4 4 4 6 9 10 8 7 5 5 6 6 4 3 2 1 1 0 0 2 3 7 7 11 12 14 15 14 15 17 18 19 20 21 22 23 22 23 27 29 26 24 23 23 22 22 20 18 17 17 16 14 13 13
6 5 5 6 6 8 9 10 13 12 10 9 8 8 9 7 5 5 3 1 3 4 4 3 0 2 1 3 4 7 6 5 4 4 6 7 9 10 8 7 6 6 6 6 4 4 4 3 4 4 1 5 4 3 4 3 2 3 7 9 11 16 18 17 18 21 21 21 22 25 28 27 24 23 24 24 22 22 21 19 17 17 17 14 12 13
3 3 6 7 6 9 10 9 11 14 14 11 10 10 9 8 7 7 4 1 2 5 3 1 2 2 2 6 6 7 8 8 7 7 7 8 9 11 11 9 8 8 8 7 7 6 6 4 4 5 6 5 6 9 10 7 6 6 4 5 4 6 12 14 14 17 19 20 23 26 27 26 23 22 24 23 22 21 21 19 18 17 16 14 13 14
3 2 6 6 6 9 10 6 8 14 14 11 9 9 9 9 8 6 3 2 2 5 3 0 1 0 3 5 4 5 9 9 8 8 8 8 9 10 11 10 9 10 11 10 10 10 10 11 11 12 13 14 14 15 16 13 9 8 7 6 6 4 3 7 8 12 21 24 23 26 26 25 24 23 23 23 22 22 21 20 20 18 16 14 14 13
1 4 6 6 6 8 7 5 7 10 8 6 7 8 11 8 3 3 2 4 2 5 2 1 0 1 2 4 5 6 10 11 9 8 8 8 8 9 9 8 9 10 11 12 12 12 13 13 14 16 16 16 15 16 19 18 12 8 9 8 5 5 4 4 6 13 23 23 20 24 26 25 25 24 22 23 23 22 21 20 19 17 15 14 14 13
2 2 3 6 6 5 4 3 3 2 4 5 5 6 8 5 4 3 1 2 1 2 2 2 2 4 4 7 9 8 10 10 9 9 9 8 9 8 7 7 8 8 10 11 12 11 12 12 14 17 17 17 16 15 17 19 16 9 9 11 6 3 2 3 11 19 23 19 15 21 25 25 26 24 22 23 23 21 21 19 18 16 15 14 14 13
3 3 3 5 3 1 2 4 0 1 4 6 8 11 12 13 11 4 3 2 2 3 4 2 6 7 6 9 9 9 10 9 8 9 9 8 8 7 7 7 8 8 9 10 11 11 12 12 14 16 17 17 18 16 16 18 18 15 12 12 8 3 2 9 17 20 20 18 16 19 24 26 26 24 22 22 22 21 20 19 17 16 15 14 14 13
3 3 4 5 4 1 2 6 3 3 4 7 10 12 14 17 15 9 6 4 3 2 2 3 8 9 7 7 8 8 8 7 7 9 8 8 8 7 7 8 10 10 10 11 12 13 14 13 13 15 17 18 18 18 18 18 18 19 17 14 11 6 5 14 20 18 16 18 18 19 23 26 25 24 22 21 20 20 20 19 16 15 15 14 14 13
2 2 2 4 6 3 4 8 6 5 7 9 13 14 14 15 13 10 9 9 5 1 3 6 9 9 8 7 7 7 7 7 8 8 8 8 9 9 9 10 11 12 13 14 14 14 14 13 12 14 16 18 19 19 18 18 18 19 19 17 14 8 6 14 18 15 15 17 19 20 23 26 25 22 21 21 20 19 19 19 16 15 16 15 15 13
2 1 2 3 5 4 4 7 8 3 9 10 15 16 13 9 7 8 10 10 6 3 5 10 11 10 7 6 7 7 7 7 8 8 9 9 10 10 10 11 12 13 13 14 14 14 14 13 14 16 17 18 19 18 18 18 19 20 21 20 18 12 5 10 12 12 14 16 18 21 22 24 22 20 21 22 20 18 19 19 17 16 16 15 14 12
0 1 2 2 3 3 1 3 5 3 10 13 16 16 13 10 7 9 11 8 4 3 7 10 9 7 5 6 9 9 8 9 9 10 10 10 11 11 11 12 12 13 14 14 14 13 14 14 15 17 18 19 19 19 18 18 19 21 22 21 21 18 10 9 8 9 13 15 17 21 22 21 21 20 22 22 19 19 20 19 17 17 16 15 14 13
2 2 2 0 3 2 2 3 1 3 7 13 17 15 13 11 8 8 8 8 7 5 1 4 5 5 4 6 9 9 10 11 11 11 10 9 11 11 12 12 12 13 13 13 13 14 14 14 15 16 18 19 20 20 19 18 19 23 25 24 23 22 19 16 13 12 13 14 18 21 18 15 17 19 19 18 19 20 20 18 17 17 17 17 15 14
1 2 3 2 2 1 1 0 1 1 2 6 9 10 10 9 8 9 9 10 11 9 3 3 4 5 6 7 8 9 10 11 10 10 9 9 10 11 11 11 11 12 12 12 13 13 14 14 15 16 16 16 18 20 20 19 20 22 24 25 25 25 24 24 23 19 17 16 16 17 14 15 19 20 17 17 20 22 21 20 20 20 20 19 18 18
1 2 1 2 2 2 1 3 2 1 2 1 3 6 7 7 8 10 10 11 12 9 7 7 7 8 9 8 9 9 9 10 10 10 10 9 9 9 11 11 11 11 12 12 12 13 14 16 16 16 17 17 17 18 20 21 22 22 23 25 27 27 27 28 27 25 23 22 19 16 17 20 23 23 22 24 26 26 25 24 22 22 21 20 19 18
2 1 1 2 1 1 2 3 0 1 2 2 2 7 6 5 8 11 11 11 12 9 9 9 9 9 8 8 8 8 9 10 11 11 12 11 10 9 10 10 11 11 11 11 12 13 15 17 17 17 18 18 18 18 18 19 21 24 26 26 27 28 28 29 29 28 26 25 23 21 20 22 23 24 25 27 28 28 26 24 22 21 21 20 18 17
2 2 2 1 1 1 1 1 1 3 5 5 5 8 8 5 6 7 8 10 12 10 8 8 8 8 8 8 7 7 9 10 11 11 11 11 10 9 9 9 10 11 11 12 13 14 16 17 17 17 19 21 22 21 19 18 18 21 25 27 28 28 28 30 30 29 28 27 25 24 22 22 23 23 24 25 26 25 24 22 20 19 20 19 18 17
1 1 2 2 1 1 2 3 4 6 5 6 5 6 7 5 4 3 3 6 9 10 7 6 7 7 6 7 6 7 7 6 8 9 10 10 9 9 10 10 10 12 13 14 14 15 17 18 18 18 20 23 25 24 22 20 18 18 21 24 26 28 29 30 29 28 28 27 25 24 23 23 23 23 23 24 24 23 21 19 17 15 14 15 16 15
3 1 1 2 1 2 4 5 3 4 3 6 7 6 5 4 3 2 1 3 7 9 7 6 6 5 5 5 4 4 4 1 6 6 8 10 10 10 12 13 14 15 15 16 16 17 18 20 20 21 21 23 26 25 24 24 22 21 22 22 23 25 27 28 26 26 26 25 24 23 23 23 24 23 24 25 25 23 22 21 19 16 13 14 15 14
7 4 2 3 3 2 3 4 2 2 3 5 8 8 6 4 2 1 2 2 6 8 6 5 4 5 5 4 4 2 1 2 4 4 6 9 10 11 11 13 15 16 17 17 18 17 17 20 24 26 25 25 25 24 25 25 25 24 23 23 22 23 24 24 24 23 23 22 23 23 22 22 23 23 23 24 23 22 21 21 20 17 16 16 16 16
6 4 2 3 4 3 3 4 3 3 3 7 9 8 6 3 1 2 1 3 5 7 5 5 4 5 6 6 6 6 4 4 5 4 6 8 10 12 12 13 15 17 17 18 19 19 19 22 25 27 27 26 24 23 23 25 26 25 24 23 23 23 22 22 22 23 22 21 22 22 22 22 22 22 22 22 21 20 20 20 18 16 16 16 16 16
6 4 3 4 5 5 5 5 4 3 3 9 10 6 7 4 1 0 2 1 4 5 3 5 6 7 8 7 6 6 6 7 8 7 8 9 10 12 14 14 15 16 16 18 19 20 19 21 24 26 26 28 27 24 22 22 24 24 24 23 24 24 22 21 20 21 22 21 21 22 22 22 22 21 21 19 19 20 19 18 16 15 15 15 15 15
4 3 3 4 3 3 4 5 4 4 4 11 10 6 7 5 1 3 3 3 3 3 6 7 8 9 9 9 8 7 8 10 10 9 9 9 10 11 13 14 14 14 15 17 19 20 19 20 24 26 27 28 29 28 25 23 22 22 23 25 25 23 22 21 21 21 21 20 20 21 21 21 21 21 20 18 18 19 18 16 15 14 14 14 13 12
3 1 3 4 2 2 4 4 3 2 6 13 10 5 7 5 2 2 3 3 5 8 8 8 9 9 9 10 10 10 10 10 11 10 9 9 9 10 12 13 13 13 14 16 17 18 18 19 22 24 24 25 27 28 28 26 23 22 24 25 24 23 22 22 21 21 20 19 18 18 19 19 19 19 19 18 17 17 16 15 14 13 11 11 11 10
7 3 3 2 3 2 4 4 3 2 5 10 7 5 6 5 4 3 3 5 7 7 6 8 8 9 10 11 11 10 10 10 10 10 9 8 7 9 11 11 12 12 13 14 14 15 16 18 19 22 23 25 25 26 27 27 25 24 24 24 22 22 22 21 20 21 20 18 16 16 16 17 16 16 16 15 15 15 14 12 11 9 7 6 7 7
7 7 8 6 5 5 6 5 5 5 6 8 8 7 7 7 7 7 7 6 6 6 5 6 8 10 11 11 11 11 10 9 9 9 9 7 7 8 10 11 11 12 12 13 13 14 15 16 16 18 20 22 23 23 24 25 25 24 23 22 22 22 21 21 21 21 19 18 17 16 15 15 15 15 14 14 13 13 12 10 9 9 9 7 6 7
9 11 10 9 10 10 9 8 8 8 9 9 9 8 8 8 7 8 8 7 6 6 6 6 8 9 9 10 10 10 9 9 9 9 8 7 8 9 10 11 11 12 12 13 13 13 13 14 15 16 17 17 18 18 18 20 22 23 21 21 22 22 20 19 19 18 17 17 17 17 16 15 15 14 14 14 14 13 13 12 11 11 11 11 10 9
10 11 9 8 9 8 7 8 9 10 10 10 10 10 10 10 8 8 8 7 6 7 8 8 8 8 8 8 8 9 10 9 9 8 7 7 8 9 10 10 11 12 12 13 13 13 14 14 13 13 14 14 14 14 13 12 14 16 18 19 20 20 19 18 17 16 16 15 15 15 16 16 17 16 15 13 13 14 16 14 12 11 12 12 12 13
8 10 10 10 9 8 9 11 12 13 12 11 10 9 9 9 10 9 9 9 9 10 10 10 10 9 8 8 8 8 8 6 7 8 7 7 8 8 8 8 8 9 10 11 11 11 12 12 12 12 12 11 10 11 11 10 9 10 13 15 16 15 15 15 16 15 14 14 13 12 13 13 15 18 19 18 16 16 17 16 14 13 13 12 11 12
9 9 10 11 11 10 11 12 12 12 12 11 11 10 9 9 10 10 10 11 11 11 11 12 12 11 10 10 10 10 8 7 6 6 6 7 7 8 7 7 7 7 8 9 10 10 9 7 8 9 10 10 10 10 11 11 9 8 9 11 13 13 10 10 12 14 14 13 11 10 10 9 9 11 15 18 20 20 19 18 17 17 16 14 12 11
8 8 8 9 9 8 8 8 8 9 9 9 10 11 11 11 11 11 11 11 11 10 11 11 12 13 13 12 12 11 9 9 10 10 8 7 7 7 6 5 6 6 6 6 8 9 8 7 6 6 7 7 8 9 11 11 10 10 10 10 11 12 10 9 9 11 12 12 11 11 9 8 7 7 9 12 16 20 21 20 20 19 19 18 16 15
7 7 7 8 8 9 10 10 9 8 9 9 9 10 11 11 11 11 11 11 10 10 11 10 10 10 11 11 12 12 10 10 10 10 9 9 9 8 7 5 4 6 6 5 5 7 7 7 6 6 4 3 4 6 7 7 9 11 12 12 11 11 12 12 11 10 9 9 10 11 9 8 7 6 5 7 10 14 18 20 20 19 19 19 18 18
Wind_Direction
202 207 214 217 223 221 219 227 236 242 248 262 276 263 243 240 236 235 171 141 152 208 246 257 261 259 268 273 269 251 194 203 193 157 161 171 174 186 177 164 178 187 160 273 264 256 231 209 195 182 165 165 175 178 176 176 180 179 173 170 167 165 163 155 151 154 154 145 134 135 140 141 143 155 166 174 184 193 202 201 202 203 204 213 213 222
204 217 223 220 226 229 225 225 238 251 258 279 299 290 255 248 248 252 225 168 150 148 256 268 269 262 262 269 274 276 258 226 185 160 162 174 185 190 166 141 123 96 41 296 265 256 247 218 182 177 169 168 176 179 181 181 181 180 174 168 165 164 162 153 151 154 153 150 141 135 139 139 145 166 170 178 190 190 192 196 206 210 203 206 210 228
205 223 230 226 227 231 235 229 228 246 256 272 279 264 262 266 262 256 253 203 138 151 229 262 270 267 259 258 258 263 266 263 223 170 162 176 189 186 158 133 125 137 161 246 244 234 240 216 177 182 183 176 178 179 186 188 179 176 173 166 161 158 155 150 152 154 151 151 145 137 142 145 151 165 166 186 198 191 196 200 204 208 208 210 211 231
204 218 226 228 230 230 236 236 232 245 248 243 252 247 249 259 263 255 232 185 187 261 283 277 279 274 267 261 249 249 252 267 270 217 171 179 189 184 165 150 161 174 184 212 220 215 226 217 183 182 189 186 182 178 185 188 177 171 166 156 152 149 146 149 153 150 149 149 142 140 146 148 151 157 164 188 198 194 203 202 196 199 209 215 214 225
222 223 217 212 219 227 228 226 228 255 249 228 238 246 250 250 255 262 254 226 238 287 305 266 276 271 265 265 254 252 239 243 266 260 211 199 210 195 164 159 173 179 191 201 200 195 207 216 196 186 189 188 182 181 184 183 170 153 142 136 140 144 144 149 150 144 145 144 139 139 142 144 149 152 164 187 199 201 201 195 193 194 196 205 213 219
233 245 227 205 210 218 222 218 206 223 247 237 228 233 250 260 264 270 283 281 244 225 203 216 249 259 248 251 247 248 244 235 245 254 244 225 228 214 164 163 180 185 194 194 189 190 196 208 205 193 190 187 183 179 166 154 137 124 131 139 136 139 141 142 149 152 152 151 150 150 149 155 159 157 169 188 197 202 198 190 190 184 178 197 210 208
234 255 245 220 226 203 207 227 212 215 236 245 230 223 234 252 266 271 282 288 267 256 252 232 247 267 249 248 245 235 234 236 235 238 242 238 241 234 177 167 180 185 188 187 189 193 191 201 208 201 183 142 116 103 80 83 100 107 128 144 130 130 146 151 159 165 164 164 165 162 161 168 168 163 171 185 193 196 192 184 180 170 172 189 195 192
217 243 229 211 234 208 204 232 218 215 228 238 242 235 228 231 242 248 254 268 274 282 280 264 263 274 269 266 272 266 245 232 231 225 224 227 241 252 209 172 178 184 179 180 189 191 193 194 169 80 66 61 63 76 85 94 107 111 127 141 130 129 146 159 165 169 172 175 172 163 161 170 172 168 171 177 187 189 182 179 171 162 173 184 184 183
199 239 233 195 213 225 217 233 223 217 229 238 242 246 244 240 247 254 254 256 262 264 264 260 256 259 263 262 274 280 267 243 241 241 232 221 223 251 249 183 172 179 176 175 181 190 189 135 88 78 80 80 78 92 111 121 129 134 134 137 139 141 151 168 172 172 178 181 174 165 164 169 168 170 174 177 183 181 175 175 167 165 176 176 173 173
197 228 244 204 210 237 227 230 230 219 225 238 242 254 267 281 287 281 268 257 254 249 250 253 253 258 262 255 257 265 272 273 257 260 295 346 8 316 297 206 168 174 176 175 182 183 141 105 102 105 108 115 118 124 149 158 145 139 136 139 146 151 163 179 186 183 181 181 175 171 172 170 165 168 176 180 182 176 169 168 168 177 177 165 163 164
235 204 230 226 210 230 236 232 234 227 225 235 242 256 268 251 254 263 259 262 262 250 247 249 251 258 259 259 262 244 331 24 0 313 19 17 12 12 350 356 147 166 167 170 175 127 96 100 111 117 119 128 140 153 169 172 157 148 148 157 160 158 162 179 196 194 187 187 183 183 182 174 168 172 177 180 180 173 166 165 171 178 166 157 160 159
250 217 214 240 220 228 245 236 233 230 215 224 239 246 246 221 223 237 237 236 246 252 254 249 244 245 249 265 291 165 97 54 37 9 19 13 4 13 357 3 101 158 156 158 156 103 92 95 101 109 122 136 148 161 164 167 170 168 166 171 173 167 159 172 200 198 189 189 188 189 188 177 174 178 178 179 175 169 167 169 173 169 157 155 155 154
236 229 209 214 219 231 244 234 225 222 204 213 227 215 231 239 218 224 230 221 235 246 250 257 253 245 246 341 33 58 66 48 39 13 5 3 5 13 356 357 57 139 131 127 117 94 96 100 100 109 129 147 161 165 164 169 177 178 174 175 178 174 164 170 190 193 186 186 187 186 185 182 181 181 180 177 169 165 168 171 171 168 162 160 155 156
214 233 218 200 192 213 231 234 220 214 201 207 219 208 217 237 229 227 229 232 247 245 248 261 259 246 244 50 50 57 57 41 34 19 6 4 7 18 19 16 34 55 40 35 57 86 104 108 119 134 138 147 161 165 171 179 183 183 178 175 178 181 176 174 179 180 179 183 184 182 183 186 184 179 178 174 166 165 168 170 172 167 164 165 162 163
212 234 227 209 191 193 214 233 238 225 206 204 221 228 222 227 238 236 228 238 253 273 293 283 266 247 242 101 64 62 61 46 32 21 9 7 9 21 40 38 37 41 34 24 39 77 109 129 147 150 108 108 168 190 186 188 190 187 182 177 174 178 183 174 168 169 175 181 183 181 182 186 182 176 174 170 167 168 167 167 168 165 165 170 168 168
226 236 221 211 210 199 202 224 240 239 221 203 211 227 230 232 239 240 255 268 279 303 304 282 285 51 122 115 63 47 57 57 41 28 15 10 13 20 37 43 38 45 54 43 27 40 86 157 160 148 116 130 206 223 205 195 196 186 176 178 175 174 179 174 167 169 173 178 183 182 181 183 180 174 169 167 169 171 165 164 167 167 169 169 167 169
227 244 223 204 211 219 212 211 229 239 236 212 210 221 227 233 238 240 254 263 264 265 260 246 247 103 125 116 68 52 53 55 43 31 22 16 21 25 30 29 21 36 57 56 40 35 347 261 204 169 164 171 197 220 218 199 188 170 168 178 178 175 179 182 179 175 173 175 180 183 182 180 177 171 167 166 169 167 160 162 166 167 168 166 166 166
215 251 243 217 213 224 220 210 219 233 240 235 222 226 224 225 234 240 243 239 231 242 251 244 236 172 154 152 74 57 40 47 38 25 26 31 29 27 34 27 14 29 48 48 38 38 18 297 304 296 259 206 190 209 230 213 179 163 164 173 176 177 183 190 187 180 177 176 178 181 183 180 176 173 169 165 165 162 156 158 163 164 163 161 162 162
212 241 245 231 220 213 216 216 216 222 230 237 241 240 232 223 225 221 225 239 239 239 245 246 245 240 43 52 92 71 42 53 43 16 19 42 44 33 34 29 15 18 27 34 26 10 347 310 328 321 296 269 199 196 211 204 210 221 175 172 178 180 187 195 192 187 184 180 177 180 181 179 176 173 169 164 161 159 155 156 159 160 159 158 160 159
200 245 246 232 223 210 208 216 219 214 217 229 242 242 239 242 242 228 221 238 244 247 256 255 253 28 21 0 75 89 78 72 69 44 26 43 53 49 42 38 32 29 29 38 26 354 319 258 288 281 287 294 214 207 192 179 189 201 197 193 186 185 192 195 195 196 191 182 178 179 179 179 177 173 167 161 158 156 155 157 157 155 156 155 156 157
179 213 243 235 224 220 215 210 226 225 205 211 228 230 229 231 235 235 226 239 255 260 262 264 273 71 4 322 71 103 116 114 115 112 80 56 58 58 50 43 53 67 63 61 51 10 7 60 67 200 192 134 205 243 206 173 180 190 196 200 189 184 188 192 197 203 196 184 179 178 177 176 174 171 164 157 156 156 155 157 155 155 155 150 151 158
187 187 222 241 227 228 227 207 217 234 225 211 211 220 230 230 225 228 223 227 260 257 256 259 257 96 2 346 73 100 103 99 98 92 78 59 53 56 51 42 47 59 59 58 66 84 89 59 21 358 317 167 184 315 357 40 51 180 206 216 198 187 186 190 200 206 198 185 179 178 176 174 171 168 161 154 156 157 155 155 154 151 152 151 153 160
196 189 222 236 228 239 246 220 218 236 235 225 217 216 226 231 235 236 224 225 249 241 254 349 106 131 17 24 47 73 74 65 59 63 63 52 47 46 37 29 35 44 48 48 50 70 92 85 45 17 15 37 44 24 17 8 6 12 338 304 275 202 194 195 204 209 200 187 181 178 175 172 169 165 158 154 157 158 154 154 153 147 149 154 157 162
143 208 234 240 227 237 259 282 262 245 235 229 226 222 224 228 242 246 188 124 243 244 242 211 105 96 31 46 65 84 80 68 50 48 52 46 44 40 30 23 28 36 41 43 42 43 46 44 37 32 27 28 33 31 27 22 13 12 1 331 324 334 246 208 199 196 194 192 186 178 172 170 167 163 159 157 158 158 154 154 155 151 153 159 160 164
195 215 222 236 230 220 235 278 269 249 239 233 231 239 243 240 277 322 73 110 225 258 252 211 71 97 96 84 92 92 85 79 66 55 53 48 41 34 28 25 25 31 34 37 40 38 34 32 29 27 23 24 30 29 29 31 26 10 3 355 342 351 337 230 195 186 191 196 190 175 169 167 165 162 161 160 159 157 153 150 152 153 157 162 160 163
304 255 226 240 240 220 228 253 242 251 290 281 281 296 289 311 27 47 72 77 287 327 53 117 140 137 113 75 65 64 66 68 64 58 54 50 44 34 27 29 30 35 36 36 39 38 33 29 27 26 21 20 25 25 24 29 30 20 7 7 8 7 17 181 194 194 192 195 190 175 168 164 164 162 160 161 159 156 152 148 149 155 159 159 159 162
21 341 293 277 280 175 263 290 18 101 309 318 351 9 8 6 15 56 98 57 48 26 18 129 144 135 106 71 58 53 53 51 45 47 46 43 41 32 27 34 37 39 40 40 42 38 34 31 26 26 23 19 22 22 20 22 25 31 29 21 21 16 113 165 188 193 184 185 191 178 166 161 160 159 160 161 158 152 149 147 149 156 157 155 154 154
49 320 291 299 307 161 249 299 338 66 7 6 21 23 24 18 16 37 61 52 85 76 311 191 143 129 112 86 71 60 58 55 45 44 41 34 33 27 27 35 36 36 37 39 40 37 35 32 26 24 22 19 19 19 18 16 17 28 36 34 35 48 135 165 180 183 172 179 187 175 164 160 157 156 156 156 154 147 145 148 150 152 155 154 150 148
130 277 343 350 313 327 14 330 329 65 62 42 44 42 34 26 24 38 44 32 26 5 202 170 135 110 98 87 78 66 61 65 59 50 41 35 32 24 25 34 33 31 32 34 35 36 34 33 30 27 23 20 18 18 19 17 14 24 35 37 40 55 138 168 176 175 166 169 167 160 163 164 161 156 148 145 150 149 146 150 151 148 152 154 149 148
149 235 41 44 299 312 35 336 317 71 92 61 52 55 51 37 32 44 46 39 24 26 92 109 101 86 78 74 75 68 62 65 63 52 42 34 31 26 26 30 28 27 30 31 31 32 32 32 30 28 27 23 21 19 20 20 17 23 31 35 41 53 123 173 176 168 161 159 151 150 161 168 164 157 148 145 150 151 149 151 149 144 145 146 144 145
253 152 80 77 266 263 160 280 309 76 99 71 50 48 51 49 49 48 37 28 24 49 85 101 95 81 76 72 70 63 54 55 52 47 42 32 27 27 29 28 24 24 26 26 27 29 29 30 29 28 27 25 24 24 24 22 21 27 34 38 42 49 80 140 155 144 138 140 143 145 154 165 166 160 152 150 152 154 154 152 148 145 143 142 142 139
244 162 111 97 267 262 228 254 305 104 103 71 45 32 35 40 48 63 50 24 4 352 41 128 101 84 95 86 72 59 49 50 44 38 36 31 27 27 28 26 21 22 23 22 24 26 26 27 27 26 27 27 28 29 28 26 28 34 40 43 45 50 67 91 102 103 107 122 143 148 145 149 160 161 158 161 167 163 154 145 141 139 137 136 131 121
229 193 150 162 262 265 182 230 56 155 147 68 37 21 28 31 42 67 60 33 13 359 5 91 69 65 75 72 68 58 49 48 43 34 29 26 27 29 28 25 21 22 23 21 22 24 25 26 24 22 22 25 30 33 34 34 34 38 43 48 53 55 59 71 82 84 84 99 128 145 136 123 133 144 147 152 157 150 137 127 123 121 122 122 114 107
154 233 184 147 241 261 124 81 73 176 188 129 23 18 16 20 48 69 55 28 19 26 57 73 65 63 65 64 69 67 57 53 48 40 33 26 28 31 29 28 26 25 25 24 24 24 24 24 22 20 20 22 29 36 39 38 37 41 47 54 59 57 53 58 68 72 73 77 89 109 120 116 117 122 120 120 127 128 124 122 119 117 119 119 114 111
156 182 179 149 245 281 82 82 154 200 148 154 61 29 9 10 60 77 69 37 20 28 58 71 70 73 82 88 88 84 77 68 56 45 38 32 31 35 33 30 28 28 28 27 26 26 24 24 24 24 21 21 26 32 37 38 39 43 48 53 58 59 55 56 58 60 65 70 72 83 101 107 106 106 106 109 115 117 116 115 115 117 121 122 121 119
192 189 179 171 309 276 136 119 174 130 106 109 72 31 14 13 42 67 72 44 19 14 44 73 82 87 99 107 105 105 102 86 65 48 38 34 33 34 35 32 27 29 30 27 27 27 23 21 25 31 30 28 27 29 33 35 37 43 48 50 53 56 57 58 55 53 56 61 66 75 86 95 99 99 100 104 108 109 108 108 105 108 114 116 115 113
185 206 176 165 11 8 94 74 111 137 105 64 44 24 21 25 11 5 70 53 25 13 30 73 91 93 104 116 122 136 133 93 62 45 34 34 35 34 36 36 31 29 26 23 25 29 26 23 27 34 39 38 35 33 33 34 35 41 45 46 47 49 52 55 54 53 54 56 64 73 80 87 93 96 97 98 97 97 102 106 103 101 108 114 112 109
92 76 182 176 94 68 108 104 124 160 111 38 15 10 28 48 27 351 130 73 29 17 25 61 83 91 108 113 116 168 198 71 50 41 31 33 33 32 35 37 35 33 29 26 27 30 30 29 28 31 38 43 41 38 38 40 42 44 45 44 43 45 47 47 47 52 55 56 63 74 82 88 91 92 93 93 93 93 97 100 101 103 109 115 115 109
81 82 90 119 117 106 135 133 96 101 86 20 352 352 14 56 69 290 189 94 19 2 19 54 75 84 86 69 41 4 280 87 78 53 36 39 36 32 34 32 30 31 30 29 31 33 33 35 36 35 34 37 39 39 40 43 44 45 46 45 44 45 45 43 43 49 54 57 63 72 80 86 91 92 92 92 93 95 98 100 103 108 114 116 116 114
73 95 96 91 101 101 115 105 70 85 73 4 342 340 3 38 108 252 197 84 2 336 6 64 89 81 56 39 35 29 31 82 114 97 63 57 50 45 42 36 32 31 29 29 32 35 37 39 42 38 31 31 35 37 40 44 44 43 42 43 45 45 43 42 44 49 54 58 63 68 72 77 83 87 89 92 95 96 98 101 105 110 115 117 118 118
60 60 70 88 92 83 96 99 81 99 48 353 337 346 1 346 253 295 35 15 317 319 32 78 85 75 56 50 61 56 53 79 99 94 72 61 54 47 42 40 39 37 35 31 31 35 38 40 43 42 38 37 39 37 37 41 43 40 39 40 41 40 39 40 45 49 53 56 60 64 67 70 73 76 79 85 92 95 95 98 102 104 108 112 114 114
54 42 48 69 85 79 98 107 108 113 32 348 336 1 11 343 191 67 3 298 315 27 70 71 70 76 77 79 85 85 81 82 83 79 67 58 55 48 40 39 39 36 34 33 33 37 40 39 40 42 40 42 44 42 39 40 40 38 37 37 35 35 38 42 46 49 50 52 55 59 63 65 68 70 71 75 82 85 83 83 86 90 94 99 102 103
14 48 77 54 43 84 92 83 90 100 17 355 349 13 21 17 82 55 335 342 48 65 73 68 68 81 90 93 94 93 89 82 75 71 66 59 57 53 47 44 42 36 34 36 38 41 43 42 41 41 39 40 42 42 42 42 40 37 37 35 33 34 40 42 44 47 48 48 51 55 58 61 64 67 70 74 78 79 78 75 75 77 82 87 92 97
3 7 103 59 352 25 79 67 60 66 22 12 24 58 49 47 67 52 26 40 52 62 77 79 82 89 94 99 99 94 90 86 80 76 72 65 59 54 51 50 47 44 42 43 45 46 47 48 47 44 41 39 39 40 41 42 41 38 36 36 35 37 41 42 43 45 44 42 45 52 57 60 62 65 68 71 74 76 76 78 79 77 75 80 92 101
49 69 88 76 53 59 84 94 87 77 55 42 53 71 71 67 66 62 60 56 44 43 63 83 93 96 99 102 101 95 93 92 90 86 80 74 67 63 61 57 52 50 49 50 52 51 51 52 51 48 44 40 38 40 41 42 42 39 36 37 39 41 42 43 45 46 43 41 41 48 56 60 61 64 66 67 70 71 70 73 76 73 69 72 82 93
110 101 91 91 95 89 86 94 94 85 78 69 66 70 73 73 72 69 67 63 55 52 61 78 89 94 99 104 102 101 102 101 99 96 91 86 78 70 67 64 59 55 53 53 54 54 54 55 54 52 51 46 42 40 41 44 45 42 39 38 40 40 40 41 44 45 45 45 43 45 52 56 55 56 61 64 66 65 63 61 61 62 65 65 64 69
111 100 88 98 114 104 88 93 94 89 85 79 73 71 71 72 74 76 77 79 76 70 72 80 86 91 95 98 101 107 113 115 112 106 99 96 91 82 72 65 59 55 53 54 54 53 55 57 55 53 55 54 48 41 39 43 47 47 44 42 40 39 38 38 38 38 39 43 45 47 52 56 56 56 60 66 67 64 62 60 58 62 66 62 60 60
93 92 86 88 96 98 100 100 92 83 80 79 76 76 75 77 79 82 87 95 95 90 88 90 92 94 92 88 87 90 92 99 110 112 107 100 98 95 88 78 67 57 52 52 52 55 58 58 54 53 53 52 50 45 39 39 44 45 43 41 39 38 39 40 39 35 32 34 40 46 53 59 61 62 62 66 70 69 64 60 60 65 66 62 63 66
96 101 102 101 101 105 111 112 105 96 88 83 84 88 88 92 97 99 102 104 103 101 97 92 86 82 79 79 79 75 66 59 68 88 100 100 98 98 94 89 86 78 67 60 56 54 57 61 62 63 59 48 42 41 40 41 43 43 45 43 36 30 33 46 50 43 35 30 30 37 48 59 69 75 72 70 73 77 74 67 64 65 67 65 65 67
90 106 118 118 110 106 109 109 106 101 92 87 97 105 103 101 103 105 108 108 106 106 105 100 94 85 77 73 70 67 65 58 51 51 56 60 71 89 99 103 107 103 90 86 79 65 53 44 49 69 84 77 64 54 47 40 32 32 41 48 44 36 31 41 56 55 46 36 28 28 37 48 64 93 103 92 86 88 89 86 80 74 72 72 70 69
52 70 95 106 102 99 101 99 95 96 95 93 99 103 103 102 100 99 99 99 102 107 107 104 101 96 89 82 74 68 67 65 55 51 47 36 34 41 36 32 89 128 129 124 117 104 84 60 39 34 45 72 90 89 80 64 46 34 29 32 41 44 35 30 34 44 49 44 34 32 38 42 42 61 96 117 116 108 100 95 91 86 83 83 82 79